Valle del Fuerte International Airport

Jump to: basic info | weather | frequencies | runways | comments

Related pages: nearby airports | nearby navaids | notams | map

Basic information (top)

Codes: LMM MMLM
Location: lon 25.685200, lat -109.081001, elev 16 ft / 5 m msl
Status: medium_airport
Scheduled airline service: yes
Links: Wikipedia Mobile

Weather (top)

Current conditions (rec'd 2014/09/16 02:50Z):

MMLM 160250Z 10025KT 6SM BKN015 OVC070 27/23 A2980 RMK SLP091 8/77/ CNDCNS VRBLS

Airport forecast (rec'd 2014/09/15 18:30Z):

TAF MMLM 151729Z 1518/1618 09025KT 2SM RA BKN010CB OVC030 
      TEMPO 1520/1523 4SM RA 
     FM160100 15015KT 4SM RA BKN010CB OVC080 
     FM160900 16020KT 5SM RA BKN015 OVC080 
     FM161500 18015KT 6SM -RA BKN030 OVC080

Frequencies (top)

Verify before use: may be inaccurate or out of date.

TWR: 118.8 MHz (MOCHIS TWR)

Runways (top)

09/27: 6,562 x 148 ft (2,000 x 45 m) — paved — lighted

Latest comments (top)

No comments yet for Valle del Fuerte International Airport

More... (top)

See also NOTAMs and nearby airports and navaids, or visit the Valle del Fuerte International Airport page at the main OurAirports website..